RA02585 UWLL-UWLL

Flight info

Callsign RA02585
Flight time 0h 11m
Altitude 7000
Route BMK
Aircraft DA40/L-SBDGRY/S

Departure

Time 2026-05-07 17:02
Airport Ulyanovsk Baratayevka Airport (UWLL)

Arrival

Time 2026-05-07 17:14
Airport Ulyanovsk Baratayevka Airport (UWLL)
Time Latitude Longitude Altitude Speed Heading
2026-05-07 16:56 54.26996 48.23300 461 ft 0 kts 300°
2026-05-07 16:59 54.26996 48.23299 461 ft 0 kts 300°
2026-05-07 16:59 54.26978 48.23263 461 ft 15 kts 208°
2026-05-07 16:59 54.27000 48.23102 461 ft 18 kts 300°
2026-05-07 17:00 54.27047 48.23043 461 ft 0 kts 37°
2026-05-07 17:00 54.27057 48.23046 461 ft 1 kts 299°
2026-05-07 17:00 54.26980 48.22957 461 ft 33 kts 213°
2026-05-07 17:00 54.26915 48.22850 461 ft 0 kts 329°
2026-05-07 17:01 54.26958 48.22810 461 ft 11 kts 335°
2026-05-07 17:01 54.27034 48.22770 461 ft 11 kts 348°
2026-05-07 17:01 54.27109 48.22751 461 ft 11 kts 356°
2026-05-07 17:01 54.27277 48.22826 461 ft 35 kts 36°
2026-05-07 17:02 54.27617 48.23198 515 ft 74 kts 32°
2026-05-07 17:02 54.28065 48.23667 737 ft 77 kts 29°
2026-05-07 17:02 54.28566 48.24209 898 ft 93 kts 29°
2026-05-07 17:02 54.29148 48.24193 1191 ft 95 kts 327°
2026-05-07 17:03 54.29518 48.23249 1450 ft 99 kts 301°
2026-05-07 17:03 54.29871 48.22175 1529 ft 110 kts 301°
2026-05-07 17:03 54.30083 48.20957 1607 ft 105 kts 262°
2026-05-07 17:03 54.29658 48.19992 1573 ft 103 kts 212°
2026-05-07 17:04 54.29041 48.19360 1507 ft 104 kts 212°
2026-05-07 17:04 54.28422 48.18720 1473 ft 100 kts 211°
2026-05-07 17:04 54.27842 48.18078 1514 ft 100 kts 211°
2026-05-07 17:04 54.27239 48.17452 1554 ft 101 kts 211°
2026-05-07 17:05 54.26615 48.16812 1565 ft 109 kts 209°
2026-05-07 17:05 54.25990 48.16126 1665 ft 105 kts 213°
2026-05-07 17:05 54.25366 48.15602 1687 ft 91 kts 184°
2026-05-07 17:05 54.24812 48.16079 1517 ft 95 kts 121°
2026-05-07 17:06 54.24469 48.17018 1393 ft 92 kts 119°
2026-05-07 17:06 54.24115 48.17916 1272 ft 84 kts 121°
2026-05-07 17:06 54.23959 48.18858 1172 ft 85 kts 81°
2026-05-07 17:06 54.24303 48.19691 960 ft 92 kts 31°
2026-05-07 17:07 54.24850 48.20202 744 ft 82 kts 33°
2026-05-07 17:07 54.25283 48.20675 630 ft 74 kts 31°
2026-05-07 17:07 54.25744 48.21169 542 ft 80 kts 28°
2026-05-07 17:07 54.26194 48.21656 464 ft 67 kts 32°
2026-05-07 17:08 54.26535 48.22030 461 ft 51 kts 32°
2026-05-07 17:08 54.26846 48.22363 461 ft 68 kts 31°
2026-05-07 17:08 54.27307 48.22854 622 ft 80 kts 31°
2026-05-07 17:08 54.27785 48.23351 835 ft 85 kts 30°
2026-05-07 17:09 54.28359 48.23901 999 ft 96 kts 23°
2026-05-07 17:09 54.28960 48.23716 1271 ft 93 kts 315°
2026-05-07 17:09 54.29293 48.22715 1464 ft 98 kts 301°
2026-05-07 17:09 54.29610 48.21745 1500 ft 84 kts 303°
2026-05-07 17:10 54.29733 48.20692 1561 ft 108 kts 251°
2026-05-07 17:10 54.29205 48.19676 1644 ft 118 kts 212°
2026-05-07 17:10 54.28495 48.18923 1647 ft 121 kts 210°
2026-05-07 17:10 54.27778 48.18169 1578 ft 118 kts 211°
2026-05-07 17:11 54.27091 48.17426 1480 ft 116 kts 215°
2026-05-07 17:11 54.26446 48.16666 1469 ft 108 kts 214°
2026-05-07 17:11 54.25818 48.15998 1470 ft 96 kts 212°
2026-05-07 17:11 54.25214 48.15839 1386 ft 90 kts 152°
2026-05-07 17:12 54.24812 48.16616 1285 ft 86 kts 122°
2026-05-07 17:12 54.24461 48.17446 1203 ft 88 kts 121°
2026-05-07 17:12 54.24117 48.18304 1125 ft 84 kts 119°
2026-05-07 17:12 54.24043 48.19212 1030 ft 78 kts 62°
2026-05-07 17:13 54.24482 48.19802 834 ft 84 kts 29°
2026-05-07 17:13 54.24961 48.20322 694 ft 78 kts 29°
2026-05-07 17:13 54.25401 48.20803 596 ft 74 kts 29°
2026-05-07 17:13 54.25836 48.21272 509 ft 74 kts 30°
2026-05-07 17:14 54.26238 48.21708 461 ft 57 kts 32°
2026-05-07 17:14 54.26522 48.22009 461 ft 39 kts 34°
2026-05-07 17:14 54.26730 48.22237 461 ft 32 kts 31°
2026-05-07 17:14 54.26906 48.22429 461 ft 28 kts 31°
2026-05-07 17:15 54.27129 48.22669 461 ft 61 kts 30°
2026-05-07 17:15 54.27557 48.23128 638 ft 74 kts 29°
2026-05-07 17:15 54.27996 48.23593 863 ft 79 kts 32°
2026-05-07 17:15 54.28519 48.24106 1069 ft 89 kts 13°
2026-05-07 17:16 54.29057 48.23668 1303 ft 94 kts 302°
2026-05-07 17:16 54.29366 48.22650 1536 ft 95 kts 301°
2026-05-07 17:16 54.29697 48.21589 1584 ft 102 kts 300°
2026-05-07 17:16 54.29735 48.20390 1574 ft 113 kts 245°
2026-05-07 17:17 54.29103 48.19492 1534 ft 119 kts 212°
2026-05-07 17:17 54.28404 48.18769 1532 ft 115 kts 211°
2026-05-07 17:17 54.27725 48.18091 1500 ft 112 kts 212°
2026-05-07 17:17 54.27072 48.17405 1490 ft 107 kts 211°
2026-05-07 17:18 54.26441 48.16779 1461 ft 106 kts 211°
2026-05-07 17:18 54.25809 48.16126 1458 ft 99 kts 211°
2026-05-07 17:18 54.25219 48.15827 1414 ft 94 kts 163°
2026-05-07 17:18 54.24781 48.16570 1353 ft 87 kts 119°
2026-05-07 17:19 54.24422 48.17453 1233 ft 92 kts 118°
2026-05-07 17:19 54.24068 48.18296 1195 ft 79 kts 119°
2026-05-07 17:19 54.24002 48.19175 1036 ft 80 kts 61°
2026-05-07 17:19 54.24426 48.19743 837 ft 75 kts 30°
2026-05-07 17:20 54.24867 48.20224 726 ft 76 kts 29°
2026-05-07 17:20 54.25311 48.20707 639 ft 77 kts 30°
2026-05-07 17:20 54.25761 48.21189 540 ft 75 kts 30°
2026-05-07 17:20 54.26190 48.21655 461 ft 62 kts 31°
2026-05-07 17:21 54.26389 48.21884 461 ft 3 kts 78°
2026-05-07 17:21 54.26380 48.21989 461 ft 20 kts 100°
2026-05-07 17:21 54.26370 48.22149 461 ft 7 kts 92°
2026-05-07 17:21 54.26400 48.22336 461 ft 19 kts 31°
2026-05-07 17:22 54.26609 48.22562 461 ft 48 kts 31°
2026-05-07 17:22 54.26929 48.22914 461 ft 44 kts 32°
2026-05-07 17:22 54.27017 48.23028 461 ft 6 kts 89°
2026-05-07 17:22 54.26965 48.23198 461 ft 17 kts 116°
2026-05-07 17:23 54.26982 48.23266 461 ft 12 kts 39°
2026-05-07 17:23 54.27025 48.23327 461 ft 0 kts 96°
2026-05-07 17:23 54.27033 48.23358 461 ft 1 kts 18°
2026-05-07 17:23 54.27039 48.23357 461 ft 0 kts 341°
2026-05-07 17:24 54.27041 48.23354 461 ft 0 kts 321°
2026-05-07 17:24 54.27042 48.23352 461 ft 0 kts 311°